Flight Track Log - Related Links

Times and Time Zones

All times are in EST time to prevent confusion due to time zone crossing. See the FLG3861 flight status page for this flight to view local times or setup timezone preferences in your user account.

Time Position Orientation Groundspeed Altitude Reporting Facility
EST Latitude Longitude Course Direction KTS MPH feet Rate Location/Type
Fri 09:50:32 PM 42.2031 -83.3525 201° Southwest 135 155 1,600  Level Cleveland Center
Fri 09:50:56 PM 42.1900 -83.3592 201° Southwest 161 185 2,100 1,906 Climbing Cleveland Center
Fri 09:51:57 PM 42.1342 -83.3486 172° South 211 243 4,300 2,100 Climbing Cleveland Center
Fri 09:52:16 PM 42.1206 -83.3425 162° South 202 232 4,900 2,778 Climbing Cleveland Center
Fri 09:52:51 PM 42.0925 -83.3172 146° Southeast 226 260 6,800 2,419 Climbing Cleveland Center
Fri 09:53:18 PM 42.0900 -83.2761 95° East 245 282 7,400 1,970 Climbing Cleveland Center
Fri 09:53:58 PM 42.1183 -83.2028 62° Northeast 317 365 9,000 2,262 Climbing Cleveland Center
Fri 09:54:19 PM 42.1244 -83.1794 71° East 302 348 9,700 1,098 Climbing Cleveland Center
Fri 09:55:20 PM 42.1631 -83.0675 65° Northeast 340 391 10,500 1,512 Climbing Cleveland Center
Fri 09:56:22 PM 42.2158 -82.9097 66° East 387 445 12,800 2,049 Climbing Cleveland Center
Fri 09:57:23 PM 42.2608 -82.7742 66° East 397 457 14,700 1,721 Climbing Cleveland Center
Fri 09:58:24 PM 42.2642 -82.6253 88° East 403 464 16,300 1,415 Climbing Cleveland Center
Fri 09:59:26 PM 42.2633 -82.4700 90° East 412 474 17,600 1,220 Climbing Cleveland Center
Fri 10:00:27 PM 42.2628 -82.3117 90° East 421 484 18,800 1,082 Climbing Cleveland Center
Fri 10:01:28 PM 42.2606 -82.1486 91° East 433 498 19,800 1,024 Climbing Cleveland Center
Fri 10:02:30 PM 42.2592 -81.9828 91° East 443 510 20,900 1,024 Climbing Cleveland Center
Fri 10:03:31 PM 42.2567 -81.8142 91° East 445 512 21,900 976 Climbing Cleveland Center
Fri 10:04:33 PM 42.2536 -81.6131 91° East 453 521 22,900 829 Climbing Cleveland Center
Fri 10:05:34 PM 42.2508 -81.4389 91° East 457 526 23,600 639 Climbing Cleveland Center
Fri 10:06:35 PM 42.2486 -81.2622 91° East 465 535 24,200 537 Climbing Cleveland Center
Fri 10:07:37 PM 42.2439 -81.0833 92° East 471 542 24,700 488 Climbing Cleveland Center
Fri 10:08:38 PM 42.2403 -80.9047 92° East 472 543 25,200 492 Climbing Cleveland Center
Fri 10:09:39 PM 42.2369 -80.7247 91° East 474 545 25,700 492 Climbing Cleveland Center
Fri 10:10:40 PM 42.2333 -80.5453 91° East 474 545 26,200 488 Climbing Cleveland Center
Fri 10:11:42 PM 42.2281 -80.3639 92° East 477 549 26,700 390 Climbing Cleveland Center
Fri 10:12:43 PM 42.2231 -80.1811 92° East 482 555 27,000 -787 Climbing Cleveland Center
Fri 10:13:44 PM 42.2181 -80.0011 92° East 479 551 25,100 -976 Descending Cleveland Center
Fri 10:14:46 PM 42.2122 -79.8217 92° East 453 521 25,000 -49 Descending Cleveland Center
Fri 10:15:47 PM 42.2067 -79.6469 92° East 464 534 25,000  Level Cleveland Center
Fri 10:16:48 PM 42.1994 -79.4694 93° East 474 545 25,000  Level Cleveland Center
Fri 10:17:49 PM 42.1936 -79.2908 92° East 477 549 25,000  Level Cleveland Center
Fri 10:18:51 PM 42.1875 -79.1092 93° East 485 558 25,000  Level Cleveland Center
Fri 10:19:52 PM 42.1914 -78.9033 88° East 490 564 25,000  Level Cleveland Center
Fri 10:20:53 PM 42.1953 -78.7217 88° East 489 563 25,000  Level Cleveland Center
Fri 10:21:54 PM 42.1981 -78.5361 89° East 493 567 25,000 -836 Level Cleveland Center
Fri 10:22:55 PM 42.2006 -78.3522 89° East 495 570 23,300 -1,512 Descending Cleveland Center
Fri 10:23:57 PM 42.2025 -78.1744 89° East 486 559 21,900 -1,415 Descending Cleveland Center
Fri 10:24:58 PM 42.2056 -77.9994 89° East 474 545 20,400 -1,328 Descending Cleveland Center
Fri 10:25:59 PM 42.2064 -77.8261 90° East 469 540 19,200 -1,180 Descending Cleveland Center
Fri 10:27:00 PM 42.2081 -77.6256 89° East 455 524 18,000 -976 Descending Cleveland Center
Fri 10:28:02 PM 42.2086 -77.4642 90° East 440 506 17,200 -488 Descending Cleveland Center
Fri 10:29:03 PM 42.2092 -77.3025 90° East 436 502 17,000 -98 Descending Cleveland Center
Fri 10:30:04 PM 42.2103 -77.1392 89° East 439 505 17,000 -192 Level Cleveland Center
Fri 10:31:08 PM 42.2094 -76.9664 90° East 440 506 16,600 -677 Descending New York Center
Fri 10:32:08 PM 42.2094 -76.8069 90° East 440 506 15,600 -1,008 Descending New York Center
Fri 10:33:07 PM 42.2111 -76.6656 89° East 410 472 14,600 -1,289 Descending Cleveland Center
Fri 10:34:09 PM 42.2258 -76.5175 82° East 401 461 13,000 -2,195 Descending Cleveland Center
Fri 10:35:10 PM 42.2453 -76.3789 79° East 323 372 10,100 -2,924 Descending Cleveland Center
Fri 10:36:08 PM 42.2561 -76.2706 82° East 321 369 7,200 -2,644 Descending New York Center
Fri 10:37:08 PM 42.2608 -76.1700 86° East 288 331 4,900 -1,850 Descending New York Center
Fri 10:38:08 PM 42.2708 -76.0811 81° East 259 298 3,500 -1,100 Descending New York Center
Fri 10:39:08 PM 42.2550 -76.0156 108° East 189 217 2,700 -700 Descending New York Center
Fri 10:40:08 PM 42.2361 -75.9747 122° Southeast 168 193 2,100 -600 Descending New York Center

Login

Don't have an account? Register now (free) for customized features, flight alerts, and more!